Tracking 30970 objects as of 3-Jul-2025
HD Live streaming from Space Station
objects crossing your sky now

OBJECT D

Track OBJECT D now!
10-day predictions


NORAD ID: 44882
Int'l Code: 2019-093D
Perigee: 568.1 km
Apogee: 584.5 km
Inclination: 97.8 °
Period: 96.0 minutes
Semi major axis: 6947 km
RCS: Unknown
Launch date: December 20, 2019
Source: (TBD)
Launch site: Taiyaun Space Center, China (TSC)

Note: This is a ROCKET BODY
Your satellite tracking list
EDRS-C
Track 1 satellite(s)




NASA's NSSDC Master Catalog

Two Line Element Set (TLE):
1 44882U 19093D   25183.90037261  .00004797  00000-0  39759-3 0  9998
2 44882  97.8182 271.5655 0011747 126.4277 233.8030 14.99264785300178
Source of the keplerian elements: AFSPC